Overview Statistics Trail Chart Weather Telemetry Raw packets
 

This is the latest recevied weather packets stored in our database for station/object N1ORT. If no packets are shown the sender has not sent any weather packets the latest 10 day(s).

<< 12 13 14 15 16 17 18 >>
Time Temp. Humidity Pressure Rain* Wind** Luminosity Snow
1788536433 25.56° C 74% 1007.9 hPa 0 mm - 802 W/m² -
1788536133 25.56° C 74% 1008.1 hPa 0 mm - 799 W/m² -
1788535829 26.11° C 73% 1008.1 hPa 0 mm - 785 W/m² -
1788535525 25.56° C 73% 1008.2 hPa 0 mm - 777 W/m² -
1788535222 25.56° C 74% 1008.4 hPa 0 mm - 767 W/m² -
1788534914 25.56° C 74% 1008.3 hPa 0 mm - 766 W/m² -
1788534609 25.56° C 78% 1008.3 hPa 0 mm - 752 W/m² -
1788534309 25.56° C 78% 1008.2 hPa 0 mm - 750 W/m² -
1788534004 25.56° C 76% 1008.2 hPa 0 mm - 750 W/m² -
1788533698 25° C 77% 1008.5 hPa 0 mm - 735 W/m² -
1788533393 25° C 78% 1008.5 hPa 0 mm - 726 W/m² -
1788533089 24.44° C 82% 1008.4 hPa 0 mm - 710 W/m² -
1788532785 24.44° C 82% 1008.3 hPa 0 mm - 700 W/m² -
1788532480 24.44° C 83% 1008.5 hPa 0 mm - 689 W/m² -
1788532176 24.44° C 80% 1008.6 hPa 0 mm - 678 W/m² -
1788531873 24.44° C 82% 1008.6 hPa 0 mm - 668 W/m² -
1788531567 23.89° C 84% 1008.5 hPa 0 mm - 657 W/m² -
1788531262 23.89° C 86% 1008.7 hPa 0 mm - 650 W/m² -
1788530959 23.89° C 86% 1008.7 hPa 0 mm - 638 W/m² -
1788530658 23.89° C 84% 1008.6 hPa 0 mm - 625 W/m² -
1788530358 23.89° C 84% 1008.9 hPa 0 mm - 615 W/m² -
1788530057 23.89° C 84% 1008.6 hPa 0 mm - 601 W/m² -
1788529754 23.33° C 86% 1008.5 hPa 0 mm - 587 W/m² -
1788529453 23.33° C 87% 1008.6 hPa 0 mm - 575 W/m² -
1788529165 22.78° C 89% 1008.6 hPa 0 mm - 365 W/m² -

* Rain latest hour (hover to see other rain measurements)
** Current wind speed in m/s (hover to see current wind gust speed)